Flag Weather past 2 weeks in Kumasi, Ghana

Now
81 °F

Passing clouds.


Feels Like: 86 °F
Forecast: N/A
Wind: 12 mph from Southwest

Location: Accra Airport

Current Time: Nov 27, 2014 at 9:12:35 PM

Latest Report: Nov 27, 2014 at 7:52 PM


Visibility: N/A

Pressure: 29.89 "Hg

Humidity: 84%

Dew point: 75 °F

Location of KumasiLocation

Historic Weather in Kumasi — Graph

°F

Kumasi temperature yesterday

Maximum temperature yesterday: 88 °F (at 12:00 PM)
Minimum temperature yesterday: 77 °F (at 3:00 AM)
Average temperature yesterday: 81 °F

Past Weeks' High & Low Weather Summary

 TemperatureHumidityPressure
High90 °F (Nov 16, 11:46 AM)94% (Nov 13, 5:48 AM)29.95 "Hg (Nov 13, 5:48 AM)
Low75 °F (Nov 18, 4:52 AM)55% (Nov 22, 12:00 PM)29.56 "Hg (Nov 17, 4:52 PM)
Average82 °F82%29.86 "Hg
* Reported Nov 12 7:00 PM — Nov 27 7:52 PM, Kumasi, Weather by CustomWeather, © 2014

Note: Actual official high and low records may vary slightly from our data, if they occured in-between our weather recording intervals... More about our weather records

Advertising

Kumasi weather history for previous 24 hours

 ConditionsComfort  
Time TempWeatherWind HumidityBarometerVisibility
7:52 PM
Nov 27
81 °FPassing clouds.12 mph84%29.89 "HgN/A
5:45 PM82 °FPassing clouds.13 mph79%29.83 "HgN/A
4:52 PM82 °FPassing clouds.12 mph79%29.83 "HgN/A
4:00 PM82 °FScattered clouds.10 mph84%29.80 "HgN/A
2:53 PM84 °FPassing clouds.14 mph79%29.80 "HgN/A
2:00 PM84 °FPassing clouds.13 mph79%29.80 "HgN/A
10:00 AM82 °FPassing clouds.5 mph79%29.89 "HgN/A
9:00 AM82 °FPassing clouds.9 mph84%29.92 "HgN/A
8:00 AM79 °FSunny.9 mph89%29.89 "Hg10 mi
7:00 AM77 °FSunny.5 mph94%29.86 "Hg10 mi
6:00 AM77 °FSunny.8 mph94%29.86 "Hg10 mi
5:00 AM77 °FClear.8 mph94%29.83 "Hg10 mi
4:00 AM77 °FPassing clouds.7 mph94%29.83 "HgN/A
3:00 AM77 °FPassing clouds.8 mph94%29.83 "HgN/A
2:00 AM77 °FPassing clouds.8 mph89%29.83 "HgN/A
1:00 AM77 °FPassing clouds.6 mph89%29.86 "HgN/A
12:00 AM79 °FPassing clouds.8 mph89%29.89 "HgN/A
11:00 PM
Nov 26
82 °FPassing clouds.8 mph84%29.89 "HgN/A
10:00 PM82 °FPassing clouds.12 mph84%29.89 "HgN/A
9:00 PM82 °FClear.9 mph79%29.89 "Hg10 mi
Weather by CustomWeather, © 2014

See weather overviewHow to use our weather pages